Date String (YYYY-MM-DD hh:mm:ss) UTC,Instrument flags,absolute air pressure of the measurement (hPa),sample flow rate (lpm),inlet stack bypass flow (lpm),air temperature of the measurement (°C),ambient temperature measured by the external sensor (°C),aerosol sample conditioner tube jacket temperature (°C),OPC LED temperature (°C),internal box temperature (°C),relative humidity of the measurement (%),span deviation,mass concentration of particles derived from Lorenz-Mie calculation of OPC scattering (μg/m³),mass concentration of particles derived from Lorenz-Mie calculation of OPC scattering (μg/m³),mass concentration of particles derived from Lorenz-Mie calculation of OPC scattering (μg/m³)
DateTimeUTC,F1_M11,P_M11,Q1_M11,Q2_M11,T1_M11,T2_M11,T3_M11,T4_M11,T5_M11,U1_M11,ZSPAN_M11,X2_M11,X0_M11,X1_M11
2023-06-21 08:00:00,SystemResetWarning,0830.6,5.00,000.00,029.8,027.6,000.0,038.4,031.2,18.8,0000.0,0005.37,0015.21,0004.05
2023-06-21 08:01:00,SystemResetWarning,0830.4,5.00,000.00,029.8,027.7,000.0,038.4,031.2,18.7,0000.0,0005.40,0015.25,0004.04
2023-06-21 08:02:00,SystemResetWarning,0830.4,5.01,000.00,029.8,027.9,000.0,038.4,031.2,18.5,0000.0,0005.43,0015.22,0004.03
2023-06-21 08:03:00,SystemResetWarning,0830.4,5.01,000.00,029.8,028.0,000.0,038.4,031.2,18.5,0000.0,0005.42,0015.17,0004.03
2023-06-21 08:04:00,SystemResetWarning,0830.4,5.01,000.00,029.8,028.0,000.0,038.4,031.3,18.3,0000.0,0005.42,0015.56,0004.01
2023-06-21 08:05:00,SystemResetWarning,0830.4,5.00,000.00,029.8,028.1,000.0,038.4,031.3,18.4,0000.0,0005.37,0015.79,0004.00
2023-06-21 08:06:00,SystemResetWarning,0830.3,4.99,000.00,029.8,028.2,000.0,038.4,031.3,18.6,0000.0,0005.33,0015.07,0004.00
2023-06-21 08:07:00,SystemResetWarning,0830.4,4.99,000.00,029.9,028.2,000.0,038.4,031.3,18.5,0000.0,0005.31,0014.82,0004.00
2023-06-21 08:08:00,SystemResetWarning,0830.3,5.00,000.00,029.9,028.3,000.0,038.4,031.4,18.4,0000.0,0005.30,0015.64,0004.00
2023-06-21 08:09:00,SystemResetWarning,0830.3,5.00,000.00,029.9,028.3,000.0,038.4,031.4,18.4,0000.0,0005.32,0015.38,0004.00
2023-06-21 08:10:00,SystemResetWarning,0830.3,5.00,000.00,029.9,028.3,000.0,038.4,031.4,18.3,0000.0,0005.35,0015.31,0004.01
2023-06-21 08:11:00,SystemResetWarning,0830.3,5.00,000.00,029.9,028.4,000.0,038.4,031.4,18.3,0000.0,0005.36,0015.51,0004.02
2023-06-21 08:12:00,SystemResetWarning,0830.3,5.00,000.00,030.0,028.4,000.0,038.5,031.4,18.4,0000.0,0005.31,0015.74,0004.02
2023-06-21 08:13:00,SystemResetWarning,0830.4,5.00,000.00,030.0,028.4,000.0,038.5,031.4,18.1,0000.0,0005.27,0015.41,0004.00
2023-06-21 08:14:00,SystemResetWarning,0830.3,5.00,000.00,030.0,028.4,000.0,038.5,031.5,18.1,0000.0,0005.26,0015.41,0003.99
2023-06-21 08:15:00,SystemResetWarning,0830.4,5.00,000.00,030.0,028.4,000.0,038.5,031.5,18.0,0000.0,0005.25,0015.36,0004.00
2023-06-21 08:16:00,SystemResetWarning,0830.4,5.00,000.00,030.0,028.4,000.0,038.5,031.5,18.1,0000.0,0005.24,0016.55,0003.99
2023-06-21 08:17:00,SystemResetWarning,0830.4,5.00,000.00,030.0,028.5,000.0,038.5,031.5,18.2,0000.0,0005.23,0017.25,0003.97
2023-06-21 08:18:00,SystemResetWarning,0830.4,5.00,000.00,030.1,028.5,000.0,038.5,031.6,18.1,0000.0,0005.23,0017.33,0003.97
2023-06-21 08:19:00,SystemResetWarning,0830.4,5.00,000.00,030.1,028.5,000.0,038.5,031.5,18.1,0000.0,0005.21,0015.85,0003.97
2023-06-21 08:20:00,SystemResetWarning,0830.4,5.01,000.00,030.1,028.5,000.0,038.6,031.6,17.8,0000.0,0005.16,0015.17,0003.96
2023-06-21 08:21:00,SystemResetWarning,0830.4,5.01,000.00,030.1,028.6,000.0,038.6,031.6,17.8,0000.0,0005.17,0014.80,0003.96
2023-06-21 08:22:00,SystemResetWarning,0830.4,5.00,000.00,030.1,028.6,000.0,038.6,031.6,17.9,0000.0,0005.16,0014.91,0003.95
2023-06-21 08:23:00,SystemResetWarning,0830.4,4.98,000.00,030.1,028.6,000.0,038.6,031.6,18.1,0000.0,0005.18,0015.31,0003.94
2023-06-21 08:24:00,SystemResetWarning,0830.4,5.00,000.00,030.1,028.6,000.0,038.6,031.6,17.8,0000.0,0005.14,0015.25,0003.94
2023-06-21 08:25:00,SystemResetWarning,0830.4,5.01,000.00,030.2,028.6,000.0,038.6,031.6,18.4,0000.0,0005.13,0014.91,0003.93
2023-06-21 08:26:00,SystemResetWarning,0830.4,5.00,000.00,030.2,028.6,000.0,038.7,031.6,17.9,0000.0,0005.15,0014.64,0003.94
2023-06-21 08:27:00,SystemResetWarning,0830.5,5.00,000.00,030.2,028.6,000.0,038.7,031.7,18.1,0000.0,0005.18,0014.27,0003.93
2023-06-21 08:28:00,SystemResetWarning,0830.4,4.99,000.00,030.2,028.6,000.0,038.7,031.7,18.6,0000.0,0005.16,0013.99,0003.93
2023-06-21 08:29:00,SystemResetWarning,0830.4,4.99,000.00,030.2,028.6,000.0,038.7,031.7,19.9,0000.0,0005.16,0013.91,0003.92
2023-06-21 08:30:00,SystemResetWarning,0830.4,4.99,000.00,030.2,027.1,000.0,038.7,031.7,19.7,0000.0,0005.16,0014.27,0003.91
2023-06-21 08:31:00,SystemResetWarning,0830.4,5.00,000.00,030.2,025.0,000.0,038.6,031.6,18.9,0000.0,0005.18,0014.47,0003.90
2023-06-21 08:32:00,SystemResetWarning,0830.3,5.00,000.00,030.1,024.7,000.0,038.5,031.4,19.0,0000.0,0005.23,0014.68,0003.91
2023-06-21 08:33:00,SystemResetWarning,0830.4,5.01,000.00,030.0,025.0,000.0,038.5,031.0,19.4,0000.0,0005.23,0014.73,0003.92
2023-06-21 08:34:00,SystemResetWarning,0830.4,5.00,000.00,029.9,025.5,000.0,038.5,031.0,19.6,0000.0,0005.30,0014.21,0003.93
2023-06-21 08:35:00,SystemResetWarning,0830.4,4.98,000.00,029.8,026.0,000.0,038.5,031.0,19.5,0000.0,0005.30,0014.26,0003.94
2023-06-21 08:36:00,SystemResetWarning,0830.4,5.01,000.00,029.8,026.4,000.0,038.5,031.1,19.5,0000.0,0005.30,0014.37,0003.94
2023-06-21 08:37:00,SystemResetWarning,0830.4,5.00,000.00,029.8,026.7,000.0,038.5,031.0,19.3,0000.0,0005.30,0014.43,0003.93
2023-06-21 08:38:00,SystemResetWarning,0830.4,5.00,000.00,029.8,027.0,000.0,038.4,031.0,19.2,0000.0,0005.23,0013.94,0003.93
2023-06-21 08:39:00,SystemResetWarning,0830.4,4.99,000.00,029.7,027.2,000.0,038.4,031.0,19.4,0000.0,0005.24,0013.29,0003.95
2023-06-21 08:40:00,SystemResetWarning,0830.4,4.99,000.00,029.7,027.4,000.0,038.4,031.0,19.5,0000.0,0005.22,0013.25,0003.96
2023-06-21 08:41:00,SystemResetWarning,0830.4,5.00,000.00,029.7,027.6,000.0,038.4,031.1,19.6,0000.0,0005.25,0013.03,0003.97
2023-06-21 08:42:00,SystemResetWarning,0830.6,5.01,000.00,029.7,027.7,000.0,038.4,031.1,19.7,0000.0,0005.26,0013.28,0003.98
2023-06-21 08:43:00,SystemResetWarning,0830.5,5.01,000.00,029.7,027.8,000.0,038.4,031.1,19.8,0000.0,0005.24,0013.25,0003.98
2023-06-21 08:44:00,SystemResetWarning,0830.6,4.99,000.00,029.8,027.9,000.0,038.4,031.1,20.1,0000.0,0005.28,0014.05,0004.00
2023-06-21 08:45:00,SystemResetWarning,0830.4,5.00,000.00,029.8,028.0,000.0,038.4,031.1,20.3,0000.0,0005.25,0013.68,0004.00
2023-06-21 08:46:00,SystemResetWarning,0830.6,5.00,000.00,029.8,028.0,000.0,038.4,031.2,20.5,0000.0,0005.36,0014.04,0004.04
2023-06-21 08:47:00,SystemResetWarning,0830.6,5.00,000.00,029.8,028.1,000.0,038.4,031.3,20.6,0000.0,0005.38,0015.17,0004.07
2023-06-21 08:48:00,SystemResetWarning,0830.5,5.00,000.00,029.8,028.1,000.0,038.4,031.3,20.8,0000.0,0005.45,0015.39,0004.10
2023-06-21 08:49:00,SystemResetWarning,0830.5,5.00,000.00,029.8,028.2,000.0,038.4,031.3,21.0,0000.0,0005.58,0015.31,0004.15
2023-06-21 08:50:00,SystemResetWarning,0830.5,4.99,000.00,029.8,028.2,000.0,038.4,031.3,21.1,0000.0,0005.67,0015.74,0004.19
2023-06-21 08:51:00,SystemResetWarning,0830.6,5.00,000.00,029.9,028.2,000.0,038.4,031.3,21.2,0000.0,0005.73,0015.73,0004.22
2023-06-21 08:52:00,SystemResetWarning,0830.6,5.00,000.00,029.9,028.3,000.0,038.4,031.3,21.1,0000.0,0005.82,0015.87,0004.26
2023-06-21 08:53:00,SystemResetWarning,0830.5,5.00,000.00,029.9,028.3,000.0,038.4,031.4,21.2,0000.0,0005.90,0015.81,0004.30
2023-06-21 08:54:00,SystemResetWarning,0830.5,5.00,000.00,029.9,028.3,000.0,038.4,031.4,21.1,0000.0,0005.94,0016.47,0004.34
2023-06-21 08:55:00,SystemResetWarning,0830.5,5.00,000.00,029.9,028.3,000.0,038.4,031.4,21.1,0000.0,0005.98,0015.81,0004.38
2023-06-21 08:56:00,SystemResetWarning,0830.5,5.00,000.00,029.9,028.3,000.0,038.5,031.4,21.1,0000.0,0006.07,0016.00,0004.42
2023-06-21 08:57:00,SystemResetWarning,0830.5,5.00,000.00,030.0,028.4,000.0,038.5,031.4,21.1,0000.0,0006.03,0015.90,0004.44
2023-06-21 08:58:00,SystemResetWarning,0830.6,5.00,000.00,030.0,028.4,000.0,038.5,031.4,21.2,0000.0,0006.07,0015.26,0004.46
2023-06-21 08:59:00,SystemResetWarning,0830.4,5.00,000.00,030.0,028.4,000.0,038.5,031.4,21.2,0000.0,0006.12,0015.30,0004.47
